Regional Weather Roundup
Issued by NWS Pendleton, OR

Home | Current Version | Previous Version | Text Only | Print | Product List | Glossary On
Versions: 1 2 3 4 5 6 7 8 9 10 11 12 13 14 15 16 17 18 19 20 21 22 23 24 25 26 27 28 29 30 31 32 33 34 35 36 37 38 39 40 41 42 43 44 45 46 47 48 49 50
476
ASUS46 KPDT 032125
RWRPDT
PENDLETON REGIONAL WEATHER ROUNDUP
NATIONAL WEATHER SERVICE PENDLETON OREGON
200 PM PDT TUE MAY 3 2016

NOTE: FAIR INDICATES FEW OR NO CLOUDS BELOW 12,000 FEET WITH NO
SIGNIFICANT WEATHER AND/OR OBSTRUCTIONS TO VISIBILITY.

# INDICATES UNOFFICIAL STATION AND DATA

WAZ520-032210-
EAST SLOPES OF WASHINGTON CASCADES

CITY            SKY/WX      TMP DP  RH  WIND    PRES   REMARKS
#CLE ELUM HS    N/A         76  42  30  SE7     29.92F
#CLE ELUM 2NW   N/A         74  40  29  E5      N/A
#CLE ELUM LAKE  N/A         71  45  39  CALM    29.88F
#GLENWOOD       N/A         74  50  43  SW2     29.93F
#MANASTASH CYN  N/A         76  45  33  W2      29.98F
#NELSON 3SW     N/A         69  47  45  CALM    30.09F
#NILE           N/A         75  43  32  NE2     29.20F
#RONALD 2NW     N/A         73  N/A N/A W2      29.88F
#TEANAWAY 4NE   N/A         75  51  43  SE3     N/A
#TROUT LAKE 1NE N/A         74  44  34  SW9     29.93F
#TROUT LAKE 1E  N/A         75  45  34  CALM    29.97F
$$

WAZ521-032210-
SIMCOE HIGHLANDS

CITY            SKY/WX      TMP DP  RH  WIND    PRES   REMARKS
#BICKLETON HS   N/A         73  32  22  CALM    N/A
#CENTERVILLE 1SWN/A         75  50  41  N9      29.89F
#GOLDENDALE 1NE N/A         76  33  21  W3      N/A
#GOODNOE HILLS  N/A         83  46  27  W16     29.86F
#LYLE 6NE       N/A         69  49  49  SW7     29.90F
$$

WAZ026-032210-
KITTITAS VALLEY

CITY            SKY/WX      TMP DP  RH  WIND    PRES   REMARKS
ELLENSBURG AP   MOCLDY      82  42  24  E7      29.98F
YTC-OPS AREA    SUNNY       75  39  27  E7      30.06S
#ELLENSBURG 3NE N/A         75  49  40  N5      29.97F
#ELLENSBURG     N/A         87  45  23  NE2     N/A
#ELLENSBURG 1E  N/A         81  N/A N/A CALM    N/A
#KITTITAS 3S    N/A         77  55  47  CALM    29.91F
#THORP 6N       N/A         73  45  37  E9      29.93F
$$

WAZ027-032210-
YAKIMA VALLEY

CITY            SKY/WX      TMP DP  RH  WIND    PRES   REMARKS
SUNNYSIDE AP    PTCLDY      83  42  24  E12     29.94F
YAKIMA AIRPORT  PTCLDY      83  40  22  E3      29.96F
YAKIMA-VAGABOND SUNNY       80  40  24  SE5     29.95F
#DONALD 2NE     N/A         90  11   5  E1      28.79F HX 86
#GRANDVIEW      N/A         83  39  21  E2      29.91F
#MABTON         N/A         83  46  27  E6      29.92F
#NACHES 2SW     N/A         76  46  34  E5      29.99F
#TERRACE HTS    N/A         82  48  31  CALM    29.88F
#TOPPENISH      N/A         80  46  30  CALM    29.83F
#WEST VALLEY    N/A         78  43  29  CALM    29.90F
#W YAKIMA       N/A         78  44  30  E2      29.92F
#WHITE SWAN 5E  N/A         79  47  32  N1      29.92F
#WILEY CITY 3W  N/A         77  40  26  CALM    29.93F
$$

WAZ028-032210-
LOWER COLUMBIA BASIN...WASHINGTON

CITY            SKY/WX      TMP DP  RH  WIND    PRES   REMARKS
HANFORD         CLOUDY      86  33  15  SE5     29.94F
PASCO           PTCLDY      88  37  16  VRB7    29.93F
PROSSER AWOS    N/A         84  39  20  N6      29.95F
RICHLAND AWOS   PTCLDY      88  37  16  E3      29.92F
#BENTON CITY    N/A         83  46  27  NE2     29.82F
#CONNELL 5N     N/A         86  40  20  W2      29.91F
#CONNELL 5NW    N/A         83  46  27  CALM    29.89F
#ELTOPIA 6NW    N/A         84  46  27  CALM    28.93F
#KAHLOTUS       N/A         84  40  21  SW5     29.92F
#KENNEWICK 3S   N/A         87  45  23  CALM    29.91F
#PATERSON       N/A         83  42  24  W2      29.89F
#SAGEMOOR 2W    N/A         87  45  23  N1      29.77F
#TOUCHET 2S     N/A         86  61  43  NE2     29.87F
#WEST PASCO     N/A         87  48  26  NE2     29.98F
$$

WAZ029-032210-
FOOTHILLS OF THE BLUES...WASHINGTON

CITY            SKY/WX      TMP DP  RH  WIND    PRES   REMARKS
WALLA WALLA AP  SUNNY       85  34  16  CALM    29.96F
#CLYDE 6NW      N/A         84  39  20  E7      29.91F
#DAYTON SCHOOL  N/A         82  41  23  N5      29.99F
#LOWDEN 2SE     N/A         88  47  24  NE1     29.88F
#PLEASANT VIEW 1N/A         84  36  18  SW2     29.95F
#PRESCOTT       N/A         87  40  19  SE1     29.90F
#SUDBURY        N/A         74  N/A N/A CALM    N/A
#WHITMAN COLLEGEN/A         86  36  17  SE3     29.94F
#WAITSBURG 5S   N/A         83  39  21  S5      29.99F
#WAITSBURG 8N   N/A         92  32  12  E8      29.82S HX 88
#WALLA WALLA U  N/A         86  36  17  SE1     29.90F
#WHITMAN MISSIONN/A         90  47  23  CALM    29.91F HX 87
$$

WAZ030-032210-
BLUE MOUNTAINS...WASHINGTON

CITY            SKY/WX      TMP DP  RH  WIND    PRES   REMARKS
#DIXIE 5SE      N/A         76  39  26  SW7     29.98F
$$

ORZ009-041-WAZ024-032210-
COLUMBIA RIVER GORGE

CITY            SKY/WX      TMP DP  RH  WIND    PRES   REMARKS
HOOD RIVER AP   CLOUDY      73  46  38  NW9     29.98F
THE DALLES AP   MOCLDY      80  45  29  N17     29.94F
#ARLINGTON AIRPON/A         81  42  25  W5      29.91F
#CELILO DOT     N/A         78  49  36  W1      N/A
#MARYHILL 2W    N/A         79  45  30  S5      N/A
#MOSIER 1S      N/A         74  36  25  N2      29.97S
#MURDOCK        N/A         75  49  40  NW12    29.89F
#RUFUS DOT      N/A         81  47  30  NW6     N/A

$$

ORZ510-032210-
NORTH CENTRAL OREGON

CITY            SKY/WX      TMP DP  RH  WIND    PRES   REMARKS
#ANTELOPE       N/A         73  44  35  SW3     29.74F
#COW CYN RST AREN/A         72  34  25  NW6     N/A
#DUFUR 9E       N/A         71  44  38  NW7     29.95F
#GRASS VALLEY   N/A         74  42  32  CALM    N/A
#KENT DOT       N/A         78  38  24  N5      N/A
#MAUPIN SCHOOL  N/A         80  47  31  N2      29.96F
#MORO SCHOOL    N/A         76  49  39  NW12    29.97F
#TYGH VALLEY 2NEN/A         80  49  34  CALM    29.88F
#WAPANITIA AIRPON/A         79  40  25  W6      29.90F
#WASCO DOT      N/A         81  48  32  W8      N/A
#WASCO AIRPORT  N/A         80  39  23  NW3     N/A
#WASCO 5NE      N/A         79  50  36  NW2     29.90F
$$

ORZ511-032210-
CENTRAL OREGON

CITY            SKY/WX      TMP DP  RH  WIND    PRES   REMARKS
BEND AIRPORT    CLOUDY      72  36  27  SW18G26 30.02F
MADRAS AIRPORT  PTCLDY      79  36  21  SE13    30.01F
PRINEVILLE AP   MOCLDY      72  37  28  MISG    30.02F
REDMOND AIRPORT LGT RAIN    74  37  26  W10     30.01F
#ASHWOOD SCHOOL N/A         75  39  27  N3      29.96S
#BEND 1SW       N/A         68  39  35  CALM    N/A
#BEND-AWBREY    N/A         70  40  34  E3      29.91S
#BEND-KIM LN    N/A         70  40  34  SW7     30.01F
#CULVER         N/A         75  36  24  SW1     29.85F
#LAKE BILLY CHINN/A         76  N/A N/A SW5     30.03F
#POWELL BUTTE   N/A         71  40  32  SW8     29.91S
#PRINEVILLE 3N  N/A         71  44  38  W6      29.90F
#WARM SPRINGS   N/A         81  42  25  E1      29.92F

$$


ORZ509-032210-
EAST SLOPES OF OREGON CASCADES

CITY            SKY/WX      TMP DP  RH  WIND    PRES   REMARKS
SISTERS AWOS    N/A         72  36  27  SW8     30.00S
#BLUE BOX PASS  N/A         67  N/A N/A CALM    N/A
#BLACK BUTTE RNCN/A         69  39  33  CALM    29.92S
#CAMP SHERMAN   N/A         73  34  24  CALM    29.99F
#LA PINE DOT    N/A         69  25  19  S8      N/A
#LA PINE 4NW    N/A         67  38  34  CALM    29.97F
#LAVA BUTTE DOT N/A         66  36  33  NE3     N/A
#SISTERS AIRPOR N/A         70  46  42  N6      30.17S
#SISTERS ODOT   N/A         72  N/A N/A SE3     N/A
#SISTERS 1NW    N/A         72  33  24  NE5     N/A
#SISTERS 3N     N/A         68  36  31  CALM    30.03S
#SUNRIVER       N/A         68  36  31  E2      29.94F
#TUMALO 3W      N/A         71  37  29  SW5     29.78F
#WANOGA BUTTE D N/A         57  28  33  W13     N/A

$$

ORZ044-032210-
LOWER COLUMBIA BASIN...OREGON

CITY            SKY/WX      TMP DP  RH  WIND    PRES   REMARKS
HERMISTON       PTCLDY      88  37  16  N6      29.92F
#BOARDMAN SCHOOLN/A         82  37  20  N2      29.91F
#ECHO 8SW       N/A         86  44  23  NW5     29.93F
#I-84 EX 198 DOTN/A         83  48  30  E8      N/A
#UMATILLA SCHOOLN/A         91  56  31  W2      29.95F HX 89
#UMATILLA       N/A         89  44  21  CALM    29.83F
$$

ORZ507-032210-
NORTHERN FOOTHILLS OF THE BLUES

CITY            SKY/WX      TMP DP  RH  WIND    PRES   REMARKS
PENDLETON AIRPT PTCLDY      87  32  14  E13     29.94F
#ADAMS 3WNW     N/A         85  38  19  W2      29.87F
#ATHENA         N/A         83  35  18  CALM    29.92F
#CAYUSE         N/A         83  39  21  CALM    29.87F
#HELIX SCHOOL   N/A         82  37  20  SE1     29.90F
#HELIX 3N       N/A         80  39  23  NE12    29.95F
#HELIX 6SW      N/A         83  38  20  CALM    29.95
#HOLDMAN 5SE    N/A         88  41  19  NE1     29.94F
#HOLDMAN 6E     N/A         85  41  21  N2      29.71F
#M-F FERNDALE   N/A         92  42  18  CALM    29.92F HX 88
#M-F GROVE ELEM N/A         87  32  14  SE1     29.93F
#M-FREEWATER 5SEN/A         89  46  23  CALM    29.95F
#PENDLETON DNTN N/A         89  44  21  E6      29.95S
#PDT AQUATIC CTRN/A         86  39  19  E3      29.96F
#PDT SUNRIDGE   N/A         85  39  20  NE2     29.94F
#PENDLETON 7NW  N/A         83  52  34  NW1     27.45S
#PILOT ROCK     N/A         84  40  21  N5      29.96F
#TUTUILLA       N/A         81  45  28  CALM    29.90F
#UMAPINE 2E     N/A         89  41  19  N5      29.89F
#WESTON SCHOOL  N/A         80  28  15  W2      29.89F

$$

ORZ508-032210-
SOUTHERN FOOTHILLS OF THE BLUES

CITY            SKY/WX      TMP DP  RH  WIND    PRES   REMARKS
#AJAX           N/A         77  39  25  W7      27.73F
#CONDON SCHOOL  N/A         74  41  30  N8      29.96F
#CONDON 5W      N/A         77  35  22  SW3     30.00F
#FOSSIL SCHOOL  N/A         80  38  22  S3      29.94
#HEPPNER EOC    N/A         82  41  23  NW8     29.81F
#HEPPNER 4NE    N/A         75  42  31  N3      29.89F
#LEXINGTON 2SE  N/A         83  42  24  N12     29.90F
#MIKKALO        N/A         81  41  24  N5      30.07F
#OLEX 4N        N/A         80  51  36  CALM    29.93F
#RUGGS 5NE      N/A         81  32  17  N8      30.17F
#RUGGS 2SW      N/A         76  38  25  N9      29.89F

$$

ORZ502-503-032210-
BLUE MOUNTAINS

CITY            SKY/WX      TMP DP  RH  WIND    PRES   REMARKS
MEACHAM         PTCLDY      76  34  22  VRB5    30.08S
#BATTLE MTN DOT N/A         74  44  34  E2      N/A
#GREENHORN 9SW  N/A         73  36  26  E5      26.26F
#HARDMAN 10S    N/A         71  29  21  SW7     30.03F
#HEPPNER 15SE   N/A         72  35  26  W2      25.59F
#LADD CYN SMT   N/A         74  32  21  E8      N/A
#LADD CREEK ODOTN/A         78  42  28  S8      N/A
#LONG CREEK HS  N/A         75  35  23  CALM    N/A
#N POWDER DOT   N/A         75  40  28  S10     N/A
#PIKES PEAK     N/A         73  33  23  S12     27.99S
#TOLLGATE       N/A         67  35  30  SW1     29.99F
#TROY SCHOOL    N/A         83  41  23  N2      29.78F
#UKIAH          N/A         80  39  23  S1      29.86F
#WESTON 4E      N/A         73  39  29  E7      29.88F
$$

ORZ505-032210-
JOHN DAY BASIN

CITY            SKY/WX      TMP DP  RH  WIND    PRES   REMARKS
JOHN DAY        PTCLDY      75  29  18  S8      30.07F
#DAYVILLE SCHOOLN/A         81  27  14  E3      29.96F
#MITCHELL       N/A         78  41  27  SW1     30.14F
#MITCHELL 8NW   N/A         75  30  19  SW8     30.07F
#MONUMENT HS    N/A         79  30  17  W2      29.92F
#MT. VERNON 5SE N/A         72  31  22  SE3     30.03S
#SPRAY SCHOOL   N/A         83  N/A N/A CALM    N/A
#WINLOCK        N/A         78  38  24  E7      29.98F
$$

ORZ506-032210-
OCHOCO AND JOHN DAY HIGHLANDS

CITY            SKY/WX      TMP DP  RH  WIND    PRES   REMARKS
#HORSE RIDGE DO N/A         71  27  19  S16     N/A
#KEYES SMT DOT  N/A         72  32  23  NE6     N/A
#PAULINA SCHOOL N/A         76  35  22  S3      29.28F
#PINE MTN OBS   N/A         57  34  42  E7      N/A
#PRAIRIE CITY   N/A         77  36  23  SE5     30.03F
#SENECA         N/A         71  N/A N/A E9      N/A
#SENECA 9NW     N/A         71  35  27  S1      30.01F
$$

ORZ049-032210-
GRANDE RONDE VALLEY

CITY            SKY/WX      TMP DP  RH  WIND    PRES   REMARKS
LA GRANDE       SUNNY       79  37  22  S15     30.04F
#COVE           N/A         78  46  32  SE2     30.09F
#COVE SCHOOL    N/A         79  37  22  CALM    30.08F
#ELGIN 3N       N/A         76  31  19  S7      30.02F
#ELGIN 1E       N/A         79  39  24  CALM    N/A
#IMBLER SCHOOL  N/A         76  39  26  SE2     30.01F
#ISLAND CITY 4N N/A         70  55  59  CALM    30.03F
#LADD CYN DOT   N/A         77  42  29  S8      N/A
#LA GRANDE ELEM N/A         77  39  25  SE10    30.05F
#UNION 1S       N/A         76  38  25  E6      29.89F
$$

ORZ050-032210-
WALLOWA COUNTY

CITY            SKY/WX      TMP DP  RH  WIND    PRES   REMARKS
JOSEPH AIRPORT  SUNNY       73  27  18  CALM    30.14F
#ENTERPRISE AP  N/A         49  29  46  CALM    30.03F
#ENTERPRISE HS  N/A         73  38  28  S3      30.09F
#IMNAHA SCHOOL  N/A         82  37  20  S7      30.01F
#IMNAHA 10S     N/A         78  40  26  SW5     30.05F
#JOSEPH 3N      N/A         72  37  28  E6      30.13F
#JOSEPH 3W      N/A         71  27  19  CALM    29.98S
#LOSTINE        N/A         76  33  21  CALM    29.78F
#MT HOWARD 8000 N/A         48  26  42  S7      30.30S
#PROMISE 1S     N/A         72  39  30  NE6     30.07F
#WALLOWA SCHOOL N/A         77  34  21  CALM    30.02F



$$



USA.gov is the U.S. government's official web portal to all federal, state and local government web resources and services.